DW5566 Rabat MA current weather conditions

sailwx.info

Wind from 104

Air temperature 17.8° C
Dewpoint 15.0° C

Last reported at 2017-Nov-20 17:58 UTC.
Time now 2017-Nov-20 19:13 UTC

Location: N 33°54' W 006°59'.
View on Google Maps.

See reports from other nearby stations

  
Tides and Currents Weather Stations Pressure Air Temp Water Temp Dewpoint Dewpoint Depression Visibility Wind Speed Wind Dir Waves Ship Positions
date/time (UTC)wind fromknots sea level pressurealtimeterstation pressurevisibilityair tempwater tempwave heightnotes
2017-Nov-20 17:58 104 17.8
2017-Nov-20 17:42 089 17.8
2017-Nov-20 17:27 086 18.3
2017-Nov-20 17:12 067 18.9
2017-Nov-20 16:57 060 18.9
2017-Nov-20 16:42 061 18.9
2017-Nov-20 16:27 046 18.9
2017-Nov-20 16:12 031 18.9
2017-Nov-20 15:57 041 18.9
2017-Nov-20 15:42 037 18.9
2017-Nov-20 15:27 018 18.9
2017-Nov-20 15:12 030 18.3
2017-Nov-20 14:57 026 18.9
2017-Nov-20 14:42 031 1 gusting 4 18.9
2017-Nov-20 14:27 028 18.9
2017-Nov-20 14:12 008 18.3
2017-Nov-20 13:57 040 3 gusting 5 18.9
2017-Nov-20 13:42 015 18.9
2017-Nov-20 13:27 340 18.9
2017-Nov-20 13:12 009 18.3
2017-Nov-20 12:57 357 2 gusting 4 18.3
2017-Nov-20 12:42 353 1 gusting 3 18.3
2017-Nov-20 12:27 346 18.3
2017-Nov-20 12:12 329 18.3
2017-Nov-20 11:57 314 17.8
2017-Nov-20 11:42 293 17.8
2017-Nov-20 11:27 314 17.8
2017-Nov-20 11:12 312 17.8
2017-Nov-20 10:57 322 17.8
2017-Nov-20 10:42 321 17.8
2017-Nov-20 10:27 319 17.2
2017-Nov-20 10:12 243 17.2
2017-Nov-20 09:56 236 17.8
2017-Nov-20 09:41 226 18.3
2017-Nov-20 09:27 199 17.8
2017-Nov-20 09:11 143 17.2
2017-Nov-20 08:56 125 16.1
2017-Nov-20 08:41 134 15.0
2017-Nov-20 08:26 150 13.3
2017-Nov-20 08:11 161 12.2
2017-Nov-20 07:56 136 10.6
2017-Nov-20 07:41 136 10.0
2017-Nov-20 07:26 136 9.4
2017-Nov-20 07:11 122 8.9
2017-Nov-20 06:56 122 9.4
2017-Nov-20 06:41 135 9.4
2017-Nov-20 06:26 135 9.4
2017-Nov-20 06:11 135 9.4
2017-Nov-20 05:56 131 9.4
2017-Nov-20 05:41 131 9.4
2017-Nov-20 05:26 131 10.0
2017-Nov-20 05:11 131 9.4
2017-Nov-20 04:56 093 10.0
2017-Nov-20 04:41 155 10.0
2017-Nov-20 04:26 135 10.0
2017-Nov-20 04:11 130 10.6
2017-Nov-20 03:56 134 10.6
2017-Nov-20 03:41 141 10.6
2017-Nov-20 03:25 131 10.6
2017-Nov-20 03:12 129 11.1
2017-Nov-20 02:56 129 11.7
2017-Nov-20 02:40 129 11.7
2017-Nov-20 02:26 129 11.7
2017-Nov-20 02:10 129 11.7
2017-Nov-20 01:55 131 11.7
2017-Nov-20 01:40 127 11.7
2017-Nov-20 01:25 167 11.7
2017-Nov-20 01:10 167 11.7
2017-Nov-20 00:55 190 11.7
2017-Nov-20 00:40 190 11.7
2017-Nov-20 00:25 190 12.8
2017-Nov-20 00:10 190 12.2
2017-Nov-19 23:55 143 12.8
2017-Nov-19 23:40 113 12.8
2017-Nov-19 23:25 116 12.8
2017-Nov-19 23:10 139 12.8
2017-Nov-19 22:55 134 12.2
2017-Nov-19 22:40 133 12.2
2017-Nov-19 22:25 137 12.2
2017-Nov-19 22:10 139 12.8
2017-Nov-19 21:55 148 12.8
2017-Nov-19 21:40 123 12.8
2017-Nov-19 21:25 110 12.8
2017-Nov-19 21:10 139 13.3
2017-Nov-19 20:55 147 13.3
2017-Nov-19 20:40 123 13.3
2017-Nov-19 20:25 129 13.3
2017-Nov-19 20:10 126 13.9
2017-Nov-19 19:55 123 13.9
2017-Nov-19 19:40 123 14.4
2017-Nov-19 19:25 123 15.0
2017-Nov-19 19:10 123 15.6
2017-Nov-19 18:55 101 16.1
2017-Nov-19 18:40 098 16.1
2017-Nov-19 18:25 100 16.1
2017-Nov-19 18:10 056 16.1
2017-Nov-19 17:55 056 16.7
2017-Nov-19 17:40 056 17.2
2017-Nov-19 17:25 056 17.2
2017-Nov-19 17:10 056 17.8
2017-Nov-19 16:55 056 18.3
2017-Nov-19 16:40 056 18.3
2017-Nov-19 16:25 358 18.3
2017-Nov-19 16:10 008 18.3
2017-Nov-19 15:55 003 18.3
2017-Nov-19 15:40 002 18.3
2017-Nov-19 15:25 004 18.3
2017-Nov-19 15:10 021 18.3
2017-Nov-19 14:55 046 18.3
2017-Nov-19 14:40 035 18.3
2017-Nov-19 14:25 354 18.3
2017-Nov-19 14:10 356 2 gusting 5 18.3
2017-Nov-19 13:55 357 3 gusting 5 18.3
2017-Nov-19 13:40 356 3 gusting 4 17.8
2017-Nov-19 13:25 349 17.8
2017-Nov-19 13:10 348 17.8
2017-Nov-19 12:55 326 17.2
2017-Nov-19 12:39 316 17.2
2017-Nov-19 12:24 311 16.7
2017-Nov-19 12:09 326 3 gusting 4 16.7
2017-Nov-19 11:54 316 3 gusting 5 16.7
2017-Nov-19 11:39 307 16.7
2017-Nov-19 11:24 321 16.7
2017-Nov-19 11:09 314 16.1
2017-Nov-19 10:54 311 1 gusting 2 16.1
2017-Nov-19 10:39 288 16.1
2017-Nov-19 10:24 309 15.6
2017-Nov-19 10:09 311 15.0
2017-Nov-19 09:54 300 0 gusting 2 14.4
2017-Nov-19 09:39 317 14.4
2017-Nov-19 09:25 359 14.4
2017-Nov-19 09:09 132 13.9
2017-Nov-19 08:54 133 13.3
2017-Nov-19 08:39 141 12.2
2017-Nov-19 08:24 142 11.1
2017-Nov-19 08:09 142 10.6
2017-Nov-19 07:54 142 9.4
2017-Nov-19 07:39 142 9.4
2017-Nov-19 07:24 150 9.4
2017-Nov-19 07:08 145 9.4
2017-Nov-19 06:53 145 9.4
2017-Nov-19 06:38 154 10.0
2017-Nov-19 06:23 146 10.0
2017-Nov-19 06:08 136 10.0
2017-Nov-19 05:53 127 10.0
2017-Nov-19 05:38 127 10.0
2017-Nov-19 05:23 127 10.0
2017-Nov-19 05:08 143 10.0
2017-Nov-19 04:53 134 10.0
2017-Nov-19 04:39 139 10.0
2017-Nov-19 04:23 136 10.0
2017-Nov-19 04:09 132 10.0
2017-Nov-19 03:53 134 10.0
2017-Nov-19 03:40 122 9.4
2017-Nov-19 03:30 154 9.4
2017-Nov-19 03:08 170 9.4
2017-Nov-19 02:53 144 9.4
2017-Nov-19 02:38 143 9.4
2017-Nov-19 02:23 137 9.4
2017-Nov-19 02:08 137 9.4
2017-Nov-19 01:53 136 9.4
2017-Nov-19 01:38 136 10.0
2017-Nov-19 01:23 135 10.0
2017-Nov-19 01:08 136 10.0
2017-Nov-19 00:53 169 10.6
2017-Nov-19 00:38 145 10.6
2017-Nov-19 00:23 145 11.1
2017-Nov-19 00:08 144 11.1
2017-Nov-18 23:53 145 11.7
2017-Nov-18 23:39 144 11.7
2017-Nov-18 23:23 144 12.2
2017-Nov-18 23:08 144 12.2
2017-Nov-18 22:53 147 12.2
2017-Nov-18 22:39 144 12.2
2017-Nov-18 22:23 106 12.2
2017-Nov-18 22:08 105 12.2
2017-Nov-18 21:53 155 12.8
2017-Nov-18 21:38 144 12.2
2017-Nov-18 21:23 136 12.2
2017-Nov-18 21:08 113 12.8
2017-Nov-18 20:53 113 12.8
2017-Nov-18 20:38 113 13.3
2017-Nov-18 20:23 113 13.9
2017-Nov-18 20:08 113 14.4
2017-Nov-18 19:53 113 14.4
2017-Nov-18 19:38 113 15.0
2017-Nov-18 19:23 113 15.0
2017-Nov-18 19:08 113 15.0